KM6VME Weather Reports


time (UTC)temp
C
wind
direction
speed
KPH
gust
KPH
rain 1hr
cm
rain 24hr
cm
rain mn
cm
humidity
%
barometer
mb
20220629034718 18 4 3.2 3.2 0.00 0.00 0.00 90 1014.8
20220629034217 18 330 1.6 1.6 0.00 0.00 0.00 89 1014.8
20220629033715 18 301 0.0 0.0 0.00 0.00 0.00 89 1014.7
20220629033215 18 344 1.6 1.6 0.00 0.00 0.00 89 1014.7
20220629032714 18 349 4.8 4.8 0.00 0.00 0.00 89 1014.6
20220629032213 18 5 4.8 4.8 0.00 0.00 0.00 88 1014.5
20220629031712 19 358 1.6 3.2 0.00 0.00 0.00 88 1014.4
20220629031210 19 12 1.6 1.6 0.00 0.00 0.00 87 1014.8
20220629030709 19 6 4.8 4.8 0.00 0.00 0.00 87 1014.6
20220629030208 19 8 3.2 4.8 0.00 0.00 0.00 86 1014.5
20220629025707 20 0 3.2 3.2 0.00 0.00 0.00 86 1014.4
20220629025205 20 359 3.2 3.2 0.00 0.00 0.00 85 1014.3
20220629024703 20 307 1.6 1.6 0.00 0.00 0.00 84 1014.3
20220629024203 20 354 3.2 4.8 0.00 0.00 0.00 83 1014.2
20220629023701 20 333 3.2 3.2 0.00 0.00 0.00 82 1014.1
20220629023200 20 330 0.0 1.6 0.00 0.00 0.00 81 1014.0
20220629022658 21 333 1.6 3.2 0.00 0.00 0.00 80 1014.1
20220629022159 21 337 3.2 3.2 0.00 0.00 0.00 80 1014.1
20220629021659 21 341 3.2 4.8 0.00 0.00 0.00 80 1014.0
20220629021158 21 331 1.6 3.2 0.00 0.00 0.00 80 1014.1
20220629020656 21 317 1.6 1.6 0.00 0.00 0.00 80 1014.1
20220629020155 21 339 1.6 1.6 0.00 0.00 0.00 79 1014.1
20220629015653 21 6 1.6 3.2 0.00 0.00 0.00 78 1013.9
20220629015152 21 321 1.6 3.2 0.00 0.00 0.00 78 1014.0
20220629014651 22 320 1.6 1.6 0.00 0.00 0.00 77 1013.8
20220629014151 22 3 3.2 4.8 0.00 0.00 0.00 75 1013.8
20220629013651 22 17 4.8 8.0 0.00 0.00 0.00 75 1013.7
20220629013150 22 0 4.8 4.8 0.00 0.00 0.00 75 1013.7
20220629012649 22 348 3.2 4.8 0.00 0.00 0.00 75 1013.8
20220629012148 22 280 4.8 8.0 0.00 0.00 0.00 75 1013.8
20220629011647 22 293 4.8 4.8 0.00 0.00 0.00 75 1013.8
20220629011146 22 328 3.2 4.8 0.00 0.00 0.00 76 1013.9
20220629010644 22 309 1.6 1.6 0.00 0.00 0.00 75 1013.8
20220629010143 23 353 4.8 4.8 0.00 0.00 0.00 74 1013.7
20220629005643 23 234 1.6 3.2 0.00 0.00 0.00 74 1013.6
20220629005142 23 312 1.6 1.6 0.00 0.00 0.00 73 1013.8
20220629004643 23 300 1.6 1.6 0.00 0.00 0.00 73 1013.9
20220629004143 23 359 3.2 3.2 0.00 0.00 0.00 72 1014.0
20220629003643 23 3 4.8 4.8 0.00 0.00 0.00 71 1014.1
20220629003141 23 20 4.8 4.8 0.00 0.00 0.00 71 1013.9
20220629002640 24 279 3.2 3.2 0.00 0.00 0.00 69 1014.4
20220629002141 23 356 1.6 3.2 0.00 0.00 0.00 71 1014.1
20220629001639 23 267 6.4 8.0 0.00 0.00 0.00 71 1014.1
20220629001139 23 8 3.2 8.0 0.00 0.00 0.00 71 1014.4
20220629000638 24 9 3.2 8.0 0.00 0.00 0.00 70 1014.4
20220629000137 24 3 6.4 8.0 0.00 0.00 0.00 69 1014.4
20220628235635 24 9 3.2 3.2 0.00 0.00 0.00 69 1014.4
20220628235135 25 17 3.2 4.8 0.00 0.00 0.00 68 1014.3
20220628234633 25 317 3.2 3.2 0.00 0.00 0.00 67 1014.3
20220628234133 25 3 4.8 8.0 0.00 0.00 0.00 66 1014.4
20220628233631 25 226 3.2 3.2 0.00 0.00 0.00 67 1014.4
20220628233131 25 325 1.6 3.2 0.00 0.00 0.00 67 1014.4
20220628232630 25 342 4.8 4.8 0.00 0.00 0.00 66 1014.6
20220628232130 25 212 1.6 3.2 0.00 0.00 0.00 66 1014.6
20220628231629 25 14 3.2 3.2 0.00 0.00 0.00 65 1014.5
20220628231129 25 25 6.4 8.0 0.00 0.00 0.00 66 1014.6
20220628230627 26 341 3.2 3.2 0.00 0.00 0.00 65 1014.7
20220628230127 26 191 4.8 4.8 0.00 0.00 0.00 66 1014.5
20220628225626 25 290 6.4 8.0 0.00 0.00 0.00 65 1014.5
20220628225126 25 18 8.0 11.3 0.00 0.00 0.00 65 1014.9
20220628224624 26 53 6.4 11.3 0.00 0.00 0.00 65 1014.8
20220628224124 26 353 6.4 8.0 0.00 0.00 0.00 64 1014.7
20220628223623 26 18 3.2 4.8 0.00 0.00 0.00 64 1014.8
20220628223123 26 300 4.8 4.8 0.00 0.00 0.00 62 1014.7
20220628222623 26 349 4.8 8.0 0.00 0.00 0.00 63 1014.8
20220628222122 26 329 4.8 8.0 0.00 0.00 0.00 63 1015.0
20220628221622 26 334 1.6 3.2 0.00 0.00 0.00 63 1014.9
20220628221121 26 82 1.6 3.2 0.00 0.00 0.00 65 1014.9
20220628220620 26 300 4.8 8.0 0.00 0.00 0.00 62 1015.0
20220628220120 26 358 4.8 8.0 0.00 0.00 0.00 65 1015.2
20220628215618 26 261 3.2 3.2 0.00 0.00 0.00 65 1015.3
20220628215118 26 23 8.0 9.7 0.00 0.00 0.00 62 1015.3
20220628214617 26 308 3.2 3.2 0.00 0.00 0.00 65 1015.4
20220628214116 26 67 8.0 12.9 0.00 0.00 0.00 63 1015.0
20220628213616 27 1 3.2 3.2 0.00 0.00 0.00 63 1015.1
20220628213115 27 355 3.2 4.8 0.00 0.00 0.00 62 1015.4
20220628212614 26 14 4.8 4.8 0.00 0.00 0.00 63 1015.0
20220628212113 27 355 4.8 4.8 0.00 0.00 0.00 63 1015.3
20220628211611 27 352 9.7 12.9 0.00 0.00 0.00 62 1015.3
20220628211111 27 345 6.4 8.0 0.00 0.00 0.00 61 1015.0
20220628210610 27 244 3.2 4.8 0.00 0.00 0.00 62 1015.3
20220628210108 27 355 3.2 3.2 0.00 0.00 0.00 62 1015.6
20220628205607 27 352 8.0 9.7 0.00 0.00 0.00 61 1015.3
20220628205106 27 298 3.2 3.2 0.00 0.00 0.00 62 1015.5
20220628204605 27 352 4.8 4.8 0.00 0.00 0.00 61 1015.4
20220628204104 27 0 1.6 3.2 0.00 0.00 0.00 61 1015.7
20220628203602 27 36 3.2 3.2 0.00 0.00 0.00 64 1015.8
20220628203101 26 321 1.6 3.2 0.00 0.00 0.00 64 1015.6
20220628202601 27 278 6.4 9.7 0.00 0.00 0.00 64 1015.7
20220628202100 26 11 4.8 8.0 0.00 0.00 0.00 63 1015.9
20220628201600 26 342 4.8 9.7 0.00 0.00 0.00 64 1015.9
20220628201059 26 24 4.8 8.0 0.00 0.00 0.00 64 1016.0
20220628200558 27 306 1.6 3.2 0.00 0.00 0.00 61 1016.0
20220628200057 27 32 1.6 4.8 0.00 0.00 0.00 63 1016.0
20220628195555 27 359 4.8 8.0 0.00 0.00 0.00 60 1015.9
20220628195054 27 287 4.8 8.0 0.00 0.00 0.00 61 1015.9
20220628194553 27 344 4.8 4.8 0.00 0.00 0.00 61 1016.2
20220628194052 28 333 1.6 1.6 0.00 0.00 0.00 59 1016.0
20220628193551 28 354 1.6 3.2 0.00 0.00 0.00 59 1016.1
20220628193050 28 41 8.0 9.7 0.00 0.00 0.00 58 1016.3
20220628192550 27 329 1.6 1.6 0.00 0.00 0.00 61 1016.3
20220628192049 28 286 1.6 1.6 0.00 0.00 0.00 61 1016.2
20220628191547 27 345 3.2 4.8 0.00 0.00 0.00 60 1016.0
20220628191047 27 319 1.6 3.2 0.00 0.00 0.00 63 1016.1
20220628190545 27 343 3.2 3.2 0.00 0.00 0.00 62 1016.5
20220628190044 27 347 1.6 1.6 0.00 0.00 0.00 61 1016.3
20220628185544 27 237 1.6 3.2 0.00 0.00 0.00 61 1016.4
20220628185043 27 353 1.6 1.6 0.00 0.00 0.00 61 1016.4
20220628184542 27 8 1.6 3.2 0.00 0.00 0.00 62 1016.3
20220628184041 27 223 0.0 1.6 0.00 0.00 0.00 62 1016.4
20220628183540 27 302 3.2 3.2 0.00 0.00 0.00 61 1016.5
20220628183040 27 264 3.2 3.2 0.00 0.00 0.00 62 1016.6
20220628182538 27 251 1.6 4.8 0.00 0.00 0.00 64 1016.3
20220628182037 27 309 1.6 1.6 0.00 0.00 0.00 63 1016.5
20220628181536 26 330 3.2 3.2 0.00 0.00 0.00 64 1016.6
20220628181035 26 315 3.2 3.2 0.00 0.00 0.00 65 1016.5
20220628180533 26 5 3.2 3.2 0.00 0.00 0.00 64 1016.6
20220628180033 26 17 3.2 3.2 0.00 0.00 0.00 66 1016.5
20220628175531 26 285 1.6 3.2 0.00 0.00 0.00 65 1016.3
20220628175031 26 343 1.6 3.2 0.00 0.00 0.00 65 1016.5
20220628174530 26 351 6.4 8.0 0.00 0.00 0.00 66 1016.5
20220628174029 26 213 0.0 1.6 0.00 0.00 0.00 68 1016.2
20220628173528 26 241 1.6 1.6 0.00 0.00 0.00 67 1016.2
20220628173028 25 262 0.0 0.0 0.00 0.00 0.00 68 1016.5
20220628172527 25 352 4.8 4.8 0.00 0.00 0.00 69 1016.3
20220628172028 25 265 1.6 1.6 0.00 0.00 0.00 70 1016.2
20220628171526 25 355 1.6 1.6 0.00 0.00 0.00 70 1016.3
20220628171025 25 317 3.2 3.2 0.00 0.00 0.00 70 1016.4
20220628170525 24 303 1.6 3.2 0.00 0.00 0.00 73 1016.4
20220628170024 24 303 0.0 1.6 0.00 0.00 0.00 74 1016.2
20220628165523 23 259 1.6 1.6 0.00 0.00 0.00 73 1016.6
20220628165022 23 287 0.0 0.0 0.00 0.00 0.00 75 1016.5
20220628164522 24 278 1.6 3.2 0.00 0.00 0.00 74 1016.4
20220628164021 24 270 0.0 1.6 0.00 0.00 0.00 74 1016.4
20220628163520 23 252 0.0 1.6 0.00 0.00 0.00 74 1016.6
20220628163019 23 301 1.6 1.6 0.00 0.00 0.00 76 1016.3
20220628162518 23 285 3.2 3.2 0.00 0.00 0.00 75 1016.4
20220628162017 23 21 1.6 1.6 0.00 0.00 0.00 75 1016.4
20220628161516 23 310 1.6 1.6 0.00 0.00 0.00 76 1016.5
20220628161016 23 314 1.6 1.6 0.00 0.00 0.00 76 1016.3
20220628160515 23 338 3.2 4.8 0.00 0.00 0.00 76 1016.5
20220628160015 23 339 1.6 1.6 0.00 0.00 0.00 76 1016.5
20220628155515 23 327 1.6 1.6 0.00 0.00 0.00 76 1016.6
20220628155015 23 321 1.6 3.2 0.00 0.00 0.00 77 1016.3
20220628154513 22 268 0.0 1.6 0.00 0.00 0.00 79 1016.5
20220628154012 22 318 0.0 1.6 0.00 0.00 0.00 79 1016.3
20220628153511 22 279 0.0 0.0 0.00 0.00 0.00 81 1016.2
20220628153010 21 310 3.2 3.2 0.00 0.00 0.00 82 1016.3
20220628152509 21 325 0.0 1.6 0.00 0.00 0.00 83 1016.2
20220628152008 21 357 1.6 1.6 0.00 0.00 0.00 82 1016.2
20220628151509 21 335 3.2 3.2 0.00 0.00 0.00 84 1016.4
20220628151009 21 257 0.0 0.0 0.00 0.00 0.00 84 1016.3
20220628150508 21 246 0.0 1.6 0.00 0.00 0.00 85 1016.2
20220628150007 21 267 0.0 0.0 0.00 0.00 0.00 85 1016.2
20220628145506 21 356 1.6 1.6 0.00 0.00 0.00 84 1016.4
20220628145004 21 346 1.6 1.6 0.00 0.00 0.00 84 1016.0
20220628144503 20 304 0.0 0.0 0.00 0.00 0.00 86 1016.1
20220628144003 20 353 1.6 1.6 0.00 0.00 0.00 87 1016.1
20220628143502 20 332 0.0 0.0 0.00 0.00 0.00 87 1015.9
20220628143001 20 342 0.0 0.0 0.00 0.00 0.00 87 1016.2
20220628142500 20 31 0.0 0.0 0.00 0.00 0.00 87 1015.8
20220628141959 19 340 0.0 0.0 0.00 0.00 0.00 89 1015.9
20220628141459 18 344 0.0 0.0 0.00 0.00 0.00 91 1015.8
20220628140958 18 327 0.0 0.0 0.00 0.00 0.00 93 1015.9
20220628140458 17 321 0.0 0.0 0.00 0.00 0.00 96 1015.8
20220628135957 17 312 0.0 0.0 0.00 0.00 0.00 98 1015.9
20220628135456 17 83 0.0 0.0 0.00 0.00 0.00 98 1016.1
20220628134955 17 337 0.0 1.6 0.00 0.00 0.00 99 1015.8
20220628134454 17 284 0.0 0.0 0.00 0.00 0.00 99 1015.5
20220628133953 16 310 0.0 0.0 0.00 0.00 0.00 99 1015.9
20220628133452 16 313 0.0 0.0 0.00 0.00 0.00 99 1015.4
20220628132952 16 306 0.0 0.0 0.00 0.00 0.00 99 1015.4
20220628132451 16 259 0.0 0.0 0.00 0.00 0.00 99 1015.6
20220628131950 16 256 0.0 0.0 0.00 0.00 0.00 99 1015.5
20220628131448 16 255 0.0 0.0 0.00 0.00 0.00 99 1015.4
20220628130947 16 270 0.0 0.0 0.00 0.00 0.00 99 1015.5
20220628130447 16 270 0.0 0.0 0.00 0.00 0.00 99 1015.5
20220628125945 16 292 0.0 0.0 0.00 0.00 0.00 99 1015.6
20220628125444 16 294 0.0 0.0 0.00 0.00 0.00 99 1015.6
20220628124944 16 270 0.0 0.0 0.00 0.00 0.00 99 1015.6
20220628124443 16 297 0.0 0.0 0.00 0.00 0.00 99 1015.7
20220628123942 16 164 0.0 0.0 0.00 0.00 0.00 98 1015.5
20220628123441 16 286 0.0 0.0 0.00 0.00 0.00 98 1015.6
20220628122941 16 244 0.0 0.0 0.00 0.00 0.00 98 1015.4
20220628122440 16 247 0.0 0.0 0.00 0.00 0.00 98 1015.3
20220628121938 16 290 0.0 0.0 0.00 0.00 0.00 98 1015.5
20220628121436 16 278 0.0 0.0 0.00 0.00 0.00 98 1015.1
20220628120936 16 277 0.0 0.0 0.00 0.00 0.00 97 1015.3
20220628120435 16 275 0.0 0.0 0.00 0.00 0.00 97 1015.3
20220628115934 16 307 0.0 0.0 0.00 0.00 0.00 97 1015.2
20220628115434 16 273 1.6 1.6 0.00 0.00 0.00 98 1015.4
20220628114933 15 244 0.0 0.0 0.00 0.00 0.00 98 1015.3
20220628114432 16 253 0.0 0.0 0.00 0.00 0.00 99 1015.6
20220628113932 16 244 0.0 0.0 0.00 0.00 0.00 99 1015.7
20220628113430 16 244 0.0 0.0 0.00 0.00 0.00 99 1015.6
20220628112930 16 244 0.0 0.0 0.00 0.00 0.00 98 1015.7
20220628112429 16 244 0.0 0.0 0.00 0.00 0.00 98 1015.3
20220628111928 16 287 0.0 0.0 0.00 0.00 0.00 98 1015.4
20220628111427 16 286 0.0 0.0 0.00 0.00 0.00 98 1015.4
20220628110926 16 265 0.0 0.0 0.00 0.00 0.00 97 1015.2
20220628110426 16 290 0.0 0.0 0.00 0.00 0.00 97 1015.2
20220628105926 16 283 0.0 0.0 0.00 0.00 0.00 97 1015.3
20220628105424 16 294 0.0 0.0 0.00 0.00 0.00 96 1015.3
20220628104922 16 244 0.0 0.0 0.00 0.00 0.00 95 1015.3
20220628104422 16 229 0.0 0.0 0.00 0.00 0.00 94 1015.6
20220628103923 16 260 0.0 0.0 0.00 0.00 0.00 94 1015.6
20220628103421 16 310 1.6 1.6 0.00 0.00 0.00 94 1015.4
20220628102920 16 286 0.0 0.0 0.00 0.00 0.00 94 1015.4
20220628102419 16 221 0.0 0.0 0.00 0.00 0.00 95 1015.4
20220628101918 16 210 0.0 0.0 0.00 0.00 0.00 95 1015.4
20220628101416 16 261 0.0 0.0 0.00 0.00 0.00 94 1015.5
20220628100915 17 275 0.0 0.0 0.00 0.00 0.00 94 1015.4
20220628100413 17 320 0.0 0.0 0.00 0.00 0.00 93 1015.7
20220628095912 17 255 0.0 0.0 0.00 0.00 0.00 92 1015.3
20220628095412 17 260 0.0 0.0 0.00 0.00 0.00 93 1015.2
20220628094910 16 289 1.6 3.2 0.00 0.00 0.00 94 1015.3
20220628094409 16 266 1.6 1.6 0.00 0.00 0.00 95 1015.5
20220628093908 17 257 0.0 0.0 0.00 0.00 0.00 95 1015.5
20220628093407 16 257 0.0 0.0 0.00 0.00 0.00 95 1015.9
20220628092906 16 257 0.0 0.0 0.00 0.00 0.00 95 1015.8
20220628092406 16 261 0.0 0.0 0.00 0.00 0.00 95 1015.7
20220628091904 16 261 0.0 0.0 0.00 0.00 0.00 96 1015.7
20220628091405 16 299 0.0 0.0 0.00 0.00 0.00 96 1015.8
20220628090904 16 257 0.0 0.0 0.00 0.00 0.00 96 1015.9
20220628090404 16 257 0.0 0.0 0.00 0.00 0.00 97 1016.0
20220628085904 17 279 0.0 0.0 0.00 0.00 0.00 97 1016.0
20220628085402 17 297 0.0 0.0 0.00 0.00 0.00 97 1015.6
20220628084900 17 320 0.0 0.0 0.00 0.00 0.00 97 1015.8
20220628084359 16 267 0.0 0.0 0.00 0.00 0.00 96 1016.1
20220628083857 16 235 0.0 0.0 0.00 0.00 0.00 96 1016.2
20220628083356 16 251 0.0 0.0 0.00 0.00 0.00 96 1016.1
20220628082856 17 247 0.0 0.0 0.00 0.00 0.00 95 1016.0
20220628082355 17 297 0.0 0.0 0.00 0.00 0.00 95 1016.2
20220628081853 17 283 0.0 0.0 0.00 0.00 0.00 95 1015.9
20220628081352 17 298 0.0 0.0 0.00 0.00 0.00 96 1016.1
20220628080851 17 238 0.0 0.0 0.00 0.00 0.00 96 1016.0
20220628080351 17 284 0.0 0.0 0.00 0.00 0.00 96 1016.0
20220628075850 17 264 0.0 0.0 0.00 0.00 0.00 96 1015.6
20220628075349 17 277 0.0 0.0 0.00 0.00 0.00 96 1015.8
20220628074848 17 290 0.0 0.0 0.00 0.00 0.00 96 1015.9
20220628074347 17 273 0.0 1.6 0.00 0.00 0.00 95 1016.0
20220628073846 17 316 0.0 0.0 0.00 0.00 0.00 95 1016.1
20220628073346 17 293 0.0 0.0 0.00 0.00 0.00 95 1016.1
20220628072846 17 246 0.0 1.6 0.00 0.00 0.00 94 1016.2
20220628072344 17 283 0.0 0.0 0.00 0.00 0.00 94 1016.0
20220628071844 17 316 0.0 0.0 0.00 0.00 0.00 94 1015.7
20220628071343 17 331 0.0 0.0 0.00 0.00 0.00 94 1015.8
20220628070842 17 241 0.0 0.0 0.00 0.00 0.00 94 1015.7
20220628070341 17 354 0.0 1.6 0.00 0.00 0.00 94 1015.8
20220628065840 17 327 0.0 0.0 0.00 0.00 0.00 93 1015.8
20220628065339 17 299 0.0 0.0 0.00 0.00 0.00 92 1016.0
20220628064839 17 335 0.0 0.0 0.00 0.00 0.00 91 1016.0
20220628064338 17 247 0.0 0.0 0.00 0.00 0.00 91 1016.1
20220628063837 17 270 0.0 0.0 0.00 0.00 0.00 90 1015.9
20220628063336 17 302 0.0 0.0 0.00 0.00 0.00 90 1016.2
20220628062835 17 282 0.0 0.0 0.00 0.00 0.00 91 1016.0
20220628062334 18 282 0.0 0.0 0.00 0.00 0.00 90 1015.9
20220628061833 18 353 1.6 1.6 0.00 0.00 0.00 90 1016.1
20220628061332 18 336 0.0 0.0 0.00 0.00 0.00 90 1016.0
20220628060830 18 315 0.0 1.6 0.00 0.00 0.00 89 1016.2
20220628060329 18 283 0.0 0.0 0.00 0.00 0.00 88 1015.8
20220628055828 18 301 0.0 0.0 0.00 0.00 0.00 87 1016.1
20220628055327 18 290 0.0 0.0 0.00 0.00 0.00 85 1016.0
20220628054826 18 288 0.0 0.0 0.00 0.00 0.00 84 1016.1
20220628054324 18 265 0.0 0.0 0.00 0.00 0.00 80 1016.1
20220628053823 18 298 0.0 0.0 0.00 0.00 0.00 79 1016.0
20220628053322 18 247 0.0 0.0 0.00 0.00 0.00 80 1015.9
20220628052820 18 285 0.0 0.0 0.00 0.00 0.00 80 1016.2
20220628052319 18 300 0.0 1.6 0.00 0.00 0.00 80 1015.8
20220628051818 18 204 0.0 0.0 0.00 0.00 0.00 80 1015.9
20220628051317 19 349 0.0 0.0 0.00 0.00 0.00 81 1015.8
20220628050817 19 223 0.0 1.6 0.00 0.00 0.00 81 1015.9
20220628050315 19 1 0.0 1.6 0.00 0.00 0.00 80 1015.5
20220628045814 19 297 0.0 1.6 0.00 0.00 0.00 80 1015.6
20220628045313 19 319 0.0 0.0 0.00 0.00 0.00 78 1015.5
20220628044812 19 308 1.6 1.6 0.00 0.00 0.00 79 1015.7
20220628044312 19 19 0.0 0.0 0.00 0.00 0.00 81 1015.7
20220628043811 20 237 0.0 0.0 0.00 0.00 0.00 80 1015.5
20220628043309 20 350 0.0 1.6 0.00 0.00 0.00 80 1015.5
20220628042808 20 346 1.6 1.6 0.00 0.00 0.00 79 1015.6
20220628042307 20 334 1.6 1.6 0.00 0.00 0.00 77 1015.5
20220628041806 20 297 0.0 0.0 0.00 0.00 0.00 74 1015.5
20220628041305 20 341 3.2 3.2 0.00 0.00 0.00 73 1015.1
20220628040804 20 332 3.2 3.2 0.00 0.00 0.00 72 1015.2
20220628040303 20 280 0.0 1.6 0.00 0.00 0.00 71 1015.3
20220628035802 20 332 1.6 3.2 0.00 0.00 0.00 73 1015.1
20220628035302 20 323 0.0 1.6 0.00 0.00 0.00 76 1015.2